sat.trackr.live / text

‹ back to catalog

STARLINK-3878

NORAD 52479 · 2022-049AE

PAYLOAD ACTIVE UNKNOWN

§ Identity

Operator
Country
US
Launch date
2022-05-06
Launch site
AFETR
Launch vehicle
Mass (kg)
RCS (m²)

Purposes: comms

External: N2YO · Heavens-Above · Gunter

§ Orbital elements

Epoch: 2026-05-25T03:42:56.049696Z

Period
95.44 min
Inclination
53.2134°
Eccentricity
0.0001473
Mean motion
15.08831391 rev/d
Perigee alt
538.8 km
Apogee alt
540.8 km
Semi-major
6,917.9 km
B*
-1.6089e-5
RAAN
65.8534°
Arg perigee
77.7555°
Mean anomaly
282.3602°
Rev number
22,517

§ Raw data

STARLINK-38781 52479U 22049AE  26145.15481539 -.00000544  00000+0 -16089-4 0  99902 52479  53.2134  65.8534 0001473  77.7555 282.3602 15.08831391225178

JSON: /api/v1/satellites/52479 · /tle

For live sub-satellite position, see the globe view (requires WebGL).

§ Visibility from observer

Set your observer location to see the next 7 days of passes ≥ 10°. The values pass through the URL so the page stays shareable.

No JS? Fill the form by hand. The geolocation button needs JavaScript.